Regional Weather Roundup
Issued by NWS Pendleton, OR

Home | Current Version | Previous Version | Text Only | Print | Product List | Glossary On
Versions: 1 2 3 4 5 6 7 8 9 10 11 12 13 14 15 16 17 18 19 20 21 22 23 24 25 26 27 28 29 30 31 32 33 34 35 36 37 38 39 40 41 42 43 44 45 46 47 48 49 50
852
ASUS46 KPDT 070925
RWRPDT
PENDLETON REGIONAL WEATHER ROUNDUP
NATIONAL WEATHER SERVICE PENDLETON OREGON
100 AM PST WED DEC 7 2016

NOTE: FAIR INDICATES FEW OR NO CLOUDS BELOW 12,000 FEET WITH NO
SIGNIFICANT WEATHER AND/OR OBSTRUCTIONS TO VISIBILITY.

# INDICATES UNOFFICIAL STATION AND DATA

WAZ520-071010-
EAST SLOPES OF WASHINGTON CASCADES

CITY            SKY/WX      TMP DP  RH  WIND    PRES   REMARKS
#CLE ELUM HS    N/A         22  18  84  CALM    30.22R
#CLE ELUM LAKE  N/A         20  18  92  CALM    30.37R
#GLENWOOD       N/A         16  14  92  CALM    30.38R
#MANASTASH CYN  N/A         21  15  77  CALM    30.20R
#NELSON 3SW     N/A         18  16  92  CALM    30.62R
#NILE           N/A         23  17  77  CALM    29.63R
#TEANAWAY 4NE   N/A         24  20  84  CALM    N/A
#TROUT LAKE 1NE N/A         25  22  88  CALM    30.37R
#TROUT LAKE 1E  N/A         24  23  96  CALM    30.23R
$$

WAZ521-071010-
SIMCOE HIGHLANDS

CITY            SKY/WX      TMP DP  RH  WIND    PRES   REMARKS
#CENTERVILLE 1SWN/A         17  14  88  CALM    30.37R
#GOLDENDALE 1NE N/A         20   8  59  NW6     N/A
#GOLDENDALE 4W  N/A         20   1  43  NE1     30.32R
#GOODNOE HILLS  N/A         22  15  74  NE3     30.22R
#LYLE 6NE       N/A         25  23  92  CALM    30.35R
$$

WAZ026-071010-
KITTITAS VALLEY

CITY            SKY/WX      TMP DP  RH  WIND    PRES   REMARKS
ELLENSBURG AP   CLOUDY      27  15  60  SE5     30.30R
#ELLENSBURG CWU N/A         26  16  65  SE7     30.35R
#ELLENSBURG 3NE N/A         25  18  74  CALM    28.38R
#ELLENSBURG 1E  N/A         26  N/A N/A CALM    N/A
#KITTITAS 4N    N/A         25  17  71  E2      30.33R
#KITTITAS 3S    N/A         26  18  71  E5      30.39R
#THORP 6N       N/A         22  18  84  E5      30.43R
$$

WAZ027-071010-
YAKIMA VALLEY

CITY            SKY/WX      TMP DP  RH  WIND    PRES   REMARKS
SUNNYSIDE AP    CLOUDY      23  20  88  SW3     30.37R
YAKIMA AIRPORT  CLOUDY      27  19  71  W6      30.35R
YAKIMA-VAGABOND CLOUDY      26  19  74  CALM    30.31R
#GRANDVIEW      N/A         26  19  74  E2      30.42R
#MABTON         N/A         26  22  85  CALM    30.37R
#NACHES 2SW     N/A         25  20  81  E1      30.29R
#TERRACE HTS    N/A         27  20  74  CALM    30.37R
#TOPPENISH      N/A         26  19  74  CALM    30.32R
#WEST VALLEY    N/A         25  19  78  CALM    30.39R
#W YAKIMA       N/A         27  20  74  CALM    30.41R
#WHITE SWAN 5E  N/A         18  15  88  CALM    30.42R
#WILEY CITY 3W  N/A         24  15  68  CALM    30.29R
$$

WAZ028-071010-
LOWER COLUMBIA BASIN...WASHINGTON

CITY            SKY/WX      TMP DP  RH  WIND    PRES   REMARKS
HANFORD         CLOUDY      28  17  63  N5      30.37R
PASCO           PTCLDY      17  16  96  CALM    30.42R
PROSSER AWOS    N/A         27  23  85  E8      30.42R
RICHLAND AWOS   MOCLDY      19  17  92  CALM    30.42R
#BENTON CITY    N/A         23  18  81  CALM    30.34R
#CONNELL 5N     N/A         14  11  88  NE1     30.44R
#CONNELL 5NW    N/A         16  13  88  CALM    30.40R
#ELTOPIA 6NW    N/A         19  14  80  CALM    29.34R
#KAHLOTUS       N/A         14  11  88  S3      30.42R
#KENNEWICK 3S   N/A         22  16  77  CALM    30.43R
#PATERSON       N/A         23  19  84  SE1     30.41R
#SAGEMOOR 2W    N/A         18  14  84  N2      30.27R
#TOUCHET 2S     N/A         16  13  88  CALM    30.42R
#WEST PASCO     N/A         19  14  80  CALM    30.48R
$$

WAZ029-071010-
FOOTHILLS OF THE BLUES...WASHINGTON

CITY            SKY/WX      TMP DP  RH  WIND    PRES   REMARKS
WALLA WALLA AP  CLEAR       19  14  80  CALM    30.35R
#CLYDE 6NW      N/A         19  17  92  CALM    30.42R
#DAYTON SCHOOL  N/A         14   8  76  CALM    30.34R
#LOWDEN 2SE     N/A         16  14  92  CALM    30.38R
#PLEASANT VIEW 1N/A         18  16  92  SW6     30.46R
#PRESCOTT       N/A         10   8  91  CALM    30.44R
#WHITMAN COLLEGEN/A         20  16  84  CALM    30.49R
#WAITSBURG 5S   N/A         17  15  92  S1      30.53R
#WAITSBURG 8N   N/A         16  N/A N/A NW2     30.35R
#WALLA WALLA U  N/A         20  16  84  CALM    30.43R
#WHITMAN MISSIONN/A         17  14  88  CALM    30.45R
$$

WAZ030-071010-
BLUE MOUNTAINS...WASHINGTON

CITY            SKY/WX      TMP DP  RH  WIND    PRES   REMARKS
#DIXIE 5SE      N/A         24  22  92  W6      30.16R
#SKI BLUEWOOD   N/A          9   6  87  S1      30.12R
$$

ORZ009-041-WAZ024-071010-
COLUMBIA RIVER GORGE

CITY            SKY/WX      TMP DP  RH  WIND    PRES   REMARKS
HOOD RIVER AP   CLOUDY      27  25  92  S5      30.36R
THE DALLES AP   CLEAR       26  22  85  E7      30.38R
#ARLINGTON AIRPON/A         22  19  88  NE3     30.42R
#ARLINGTON HS   N/A         19  14  80  W2      30.34R
#CELILO DOT     N/A         30  22  72  CALM    N/A
#LYLE           N/A         31  27  85  E3      30.40R
#MOSIER 1S      N/A         27  22  81  CALM    N/A
#MURDOCK        N/A         28  24  85  CALM    30.37R
#RUFUS DOT      N/A         26  22  85  S8      N/A
#SMITHVILLE     N/A         26  23  88  CALM    30.33R

$$

ORZ510-071010-
NORTH CENTRAL OREGON

CITY            SKY/WX      TMP DP  RH  WIND    PRES   REMARKS
#ANTELOPE       N/A          9   5  83  N2      30.27R
#CHENOWITH 1W   N/A         24  23  96  E7      N/A
#COW CYN RST AREN/A         20  N/A N/A CALM    N/A
#DUFUR 9E       N/A         24  20  84  SE3     30.42S
#GRASS VALLEY 1SN/A         14  12  92  CALM    30.19R
#KENT DOT       N/A         17  12  80  N2      N/A
#MAUPIN SCHOOL  N/A         22  18  84  CALM    30.37R
#MORO SCHOOL    N/A         13  12  96  CALM    30.27R
#SHANIKO 5WSW   N/A         20   9  62  N3      N/A
#SHANIKO 4NW    N/A         19  16  88  S2      30.17R
#WAPANITIA AIRPON/A         13  11  91  CALM    30.41R
#WASCO DOT      N/A         19  16  88  CALM    N/A
#WASCO 5NE      N/A         17  14  88  CALM    30.39R
$$

ORZ511-071010-
CENTRAL OREGON

CITY            SKY/WX      TMP DP  RH  WIND    PRES   REMARKS
BEND AIRPORT    MOCLEAR     12  10  91  S6      30.22R
MADRAS AIRPORT  CLEAR       14  14  100 S6      30.28R
PRINEVILLE AP   CLOUDY      18  16  92  S6      30.24R FOG
REDMOND AIRPORT PTCLDY      16  13  88  SE5     30.23R
#ASHWOOD SCHOOL N/A         14  11  88  CALM    30.21R
#BEND 1SW       N/A         12   9  87  N1      N/A
#BEND-AWBREY    N/A         17  15  92  SE1     30.38R
#BEND-KIM LN    N/A          9   6  87  SW2     30.14R
#CULVER         N/A         15  12  88  CALM    30.32R
#CULVER 8W      N/A         12   6  76  CALM    30.22R
#LAKE BILLY CHINN/A         21  N/A N/A E1      30.38R
#MADRAS 4S      N/A         17  -17 20  S6      30.32R
#POWELL BUTTE 3EN/A          8   5  87  E1      N/A
#POWELL BUTTE   N/A         19  11  70  CALM    30.14R
#PRINEVILLE 3N  N/A         13  10  87  E5      30.40R

$$


ORZ509-071010-
EAST SLOPES OF OREGON CASCADES

CITY            SKY/WX      TMP DP  RH  WIND    PRES   REMARKS
SISTERS AWOS    N/A         10   7  87  CALM    30.17R
#BLUE BOX PASS  N/A         16  N/A N/A CALM    N/A
#CAMP SHERMAN   N/A         13   9  84  CALM    30.45R
#LA PINE DOT    N/A          3   0  87  SW1     N/A
#LA PINE 4NW    N/A          6   2  83  CALM    30.43R
#LAVA BUTTE DOT N/A          6   3  87  CALM    N/A
#SISTERS AIRPOR N/A         10  10  100 CALM    30.17S
#SISTERS ODOT   N/A          8  N/A N/A CALM    N/A
#SISTERS 3N     N/A         10   3  73  CALM    30.23R
#SUNRIVER       N/A          9   5  83  CALM    30.41R
#SUTTLE LK DOT  N/A         13  13  100 W8      N/A
#TUMALO 3W      N/A         16  13  88  N2      30.26R
#WANOGA BUTTE D N/A          8   4  83  W6      N/A

$$

ORZ044-071010-
LOWER COLUMBIA BASIN...OREGON

CITY            SKY/WX      TMP DP  RH  WIND    PRES   REMARKS
HERMISTON       MOCLDY      18  14  84  E7      30.38R
#BOARDMAN SCHOOLN/A         19  15  84  CALM    30.41R
#BOARDMAN 8SW   N/A         19  16  88  SW2     30.42R
#I-84 EX 198 DOTN/A         17  10  73  CALM    N/A
#UMATILLA       N/A         18  14  84  E2      30.37R
$$

ORZ507-071010-
NORTHERN FOOTHILLS OF THE BLUES

CITY            SKY/WX      TMP DP  RH  WIND    PRES   REMARKS
PENDLETON AIRPT CLEAR       15  11  84  SE9     30.33R
#ADAMS 3WNW     N/A          5   2  87  CALM    30.45R
#ATHENA         N/A          6   3  87  CALM    30.47R
#CAYUSE         N/A         19  16  88  E6      30.42R
#HELIX SCHOOL   N/A          0  -3  87  CALM    30.45R
#HELIX 3N       N/A         15  13  92  CALM    30.26R
#HOLDMAN 5SE    N/A         12   9  87  CALM    30.32R
#HOLDMAN 6E     N/A         13  11  91  CALM    30.23R
#M-F GROVE ELEM N/A         20  12  71  CALM    30.33R
#M-FREEWATER 5SEN/A         18  14  84  SE5     30.34R
#PENDLETON DNTN N/A         11   7  83  CALM    30.36S
#PDT AQUATIC CTRN/A         10   7  87  E2      30.34S
#PDT SUNRIDGE   N/A          9   6  87  CALM    30.38R
#PENDLETON 7NW  N/A         11   6  80  E5      31.38S
#PILOT ROCK 1S  N/A         17   6  61  S9      30.31R
#PILOT ROCK     N/A         15   9  77  SW6     30.33R
#UMAPINE 2E     N/A         17  13  84  CALM    30.36R
#WESTON SCHOOL  N/A         17  10  73  W1      30.21R

$$

ORZ508-071010-
SOUTHERN FOOTHILLS OF THE BLUES

CITY            SKY/WX      TMP DP  RH  WIND    PRES   REMARKS
LEXINGTON       CLEAR       16  10  77  SE9     30.35R
#AJAX           N/A         21  10  62  CALM    28.01R
#CONDON SCHOOL  N/A         16  13  88  CALM    30.17R
#CONDON 5W      N/A         19  16  88  CALM    30.17R
#HEPPNER EOC    N/A         13   8  80  E7      30.36R
#HEPPNER 4NE    N/A         13   7  76  E2      30.41R
#LEXINGTON 2SE  N/A         17  10  73  SE13    30.29R WCI  3
#MIKKALO        N/A         15   9  77  E5      30.40R
#OLEX 4N        N/A         18  15  88  S3      30.32R
#RUGGS 5NE      N/A          9   7  91  CALM    30.40R
#RUGGS 2SW      N/A         16  10  77  SW8     30.43R

$$

ORZ502-503-071010-
BLUE MOUNTAINS

CITY            SKY/WX      TMP DP  RH  WIND    PRES   REMARKS
MEACHAM         CLEAR       -2  -9  71  CALM    30.19
#BATTLE MTN DOT N/A          6   3  87  S1      N/A
#GREENHORN 9SW  N/A          4   2  91  CALM    26.38R
#HEPPNER 15SE   N/A          6   4  91  CALM    30.14R
#LADD CYN SMT   N/A          2  -1  87  CALM    N/A
#LADD CREEK ODOTN/A          8  -35 11  S7      N/A
#LONG CREEK HS  N/A          7   7  100 CALM    30.20R
#N POWDER DOT   N/A          4   0  83  CALM    N/A
#PIKES PEAK     N/A         16  13  88  CALM    27.99S
#TOLLGATE       N/A          7   4  87  CALM    29.94R
#TROY SCHOOL    N/A         22  16  77  CALM    30.27R
#UKIAH          N/A         -5  -8  86  CALM    30.39R
#WESTON 4E      N/A         13  11  91  E3      30.39R
$$

ORZ505-071010-
JOHN DAY BASIN

CITY            SKY/WX      TMP DP  RH  WIND    PRES   REMARKS
JOHN DAY        CLEAR       17  12  80  CALM    30.20R
#DAYVILLE SCHOOLN/A         16  10  77  CALM    30.22R
#MITCHELL 8NW   N/A         20  14  77  CALM    30.35S
#MONUMENT HS    N/A         12   7  80  CALM    30.37R
#MT. VERNON 5SE N/A         14  11  88  CALM    30.13R
#SPRAY SCHOOL   N/A         13  N/A N/A CALM    N/A
$$

ORZ506-071010-
OCHOCO AND JOHN DAY HIGHLANDS

CITY            SKY/WX      TMP DP  RH  WIND    PRES   REMARKS
#BUCK CREEK DOT N/A         18  15  88  CALM    N/A
#HORSE RIDGE DO N/A         -1  -6  79  N1      N/A
#KEYES SMT DOT  N/A         11   8  87  W6      N/A
#PAULINA SCHOOL N/A         16   8  70  CALM    N/A
#PINE MTN OBS   N/A         10   8  91  S1      N/A
#PRAIRIE CITY   N/A          5  -4  65  CALM    30.38
#SENECA         N/A          7  N/A N/A W1      N/A
#SENECA 9NW     N/A          4   1  87  CALM    30.37R
$$

ORZ049-071010-
GRANDE RONDE VALLEY

CITY            SKY/WX      TMP DP  RH  WIND    PRES   REMARKS
LA GRANDE       CLEAR       18   7  61  CALM    30.25R
#COVE           N/A         12   9  87  W1      30.27R
#COVE SCHOOL    N/A         12   9  87  CALM    30.24R
#COVE 6NW       N/A         15  11  84  CALM    30.41R
#ELGIN 3N       N/A          5  -4  65  CALM    30.22R
#ELGIN 1E       N/A         11   6  80  CALM    N/A
#IMBLER SCHOOL  N/A         12   9  87  CALM    30.21R
#ISLAND CITY 4N N/A         28  27  96  CALM    30.36R
#LADD CYN DOT   N/A         13   8  80  SE14    N/A    WCI -2
#UNION 1S       N/A         15  11  84  CALM    30.42R
$$

ORZ050-071010-
WALLOWA COUNTY

CITY            SKY/WX      TMP DP  RH  WIND    PRES   REMARKS
JOSEPH AIRPORT  LGT SNOW    18  14  84  CALM    30.18R
#IMNAHA SCHOOL  N/A         27  25  92  CALM    30.27R
#IMNAHA 10S     N/A         23  20  88  CALM    30.20R
#JOSEPH 3N      N/A         16  12  84  CALM    30.18R
#JOSEPH 3W      N/A         13   8  80  CALM    29.97R
#LOSTINE        N/A         14  11  88  CALM    30.21R
#LOSTINE 3SE    N/A         13  11  91  CALM    30.19R
#MT HOWARD 8000 N/A          3   0  87  CALM    29.81R
#PROMISE 1S     N/A          9   6  87  CALM    30.53F
#WALLOWA SCHOOL N/A         14  11  88  CALM    30.20R



$$



USA.gov is the U.S. government's official web portal to all federal, state and local government web resources and services.